Content
SEND FEEDBACK

Daily
Averages
Monthly
Summary
United States of America

RAPID CITY, SOUTH DAKOTA


Home > North America > United States > South Dakota
Elevation: 3162 feet     Latitude: 44 03N     Longitude: 103 04W

WEATHER
 
SELECT A DAY
Number of Records: 205,017;   Date Range: 1/1/95 - 12/19/14
 
SHARE

PRINT THIS DATA

[ ← Previous Day ]
WEATHER ALMANAC - MAY 9, 2013
[ Next Day → ]
[ °C ]   °F
Weather ElementAverageHighLow
Temperature53.6 °F64 °F (2:52 pm)43 °F (5:52 am)
Dewpoint40.3 °F43 °F (4:52 pm)36 °F (11:52 pm)
Humidity62.4 %86 % (5:52 am)43 % (3:52 pm)
Barometer30.14 in30.18 in (11:52 am)30.08 in (1:52 am)
Wind Speed7.1 mph15 mph (11:52 am)
Wind Gust20.7 mph (11:52 am)
Weather ElementAverage
Visibility10 mi
Wind DirectionS (175.7 °)

Weather ElementTotal
Precipitation---
Heating Degree Days11.5 (Base 65)
Growing Degree Days3.5 (Base 50)
Averaged from 23 records on May 9, 2013
WEATHER CONDITIONS BREAKOUT
WIND DIRECTION BREAKOUT
WEATHER BY HOUR - MAY 9, 2013
[ °C ]   °F
Local TimeTemperatureDewpointHumidityBarometerVisibilityWind DirectionWind SpeedGust SpeedPrecipitationEventsConditions
1:52 AM46.9 °F37.9 °F71 %30.08 in10.0 miNNW (340°)10.4 mphClear
2:52 AM45.0 °F37.9 °F76 %30.10 in10.0 miNNW (330°)6.9 mphClear
3:52 AM46.9 °F39.9 °F77 %30.11 in10.0 miNorth (350°)5.8 mphMostly Cloudy
4:52 AM46.0 °F39.9 °F79 %30.12 in10.0 miNNE (20°)8.1 mphOvercast
5:52 AM43.0 °F39.0 °F86 %30.14 in10.0 miNorth (350°)8.1 mphPartly Cloudy
6:52 AM46.9 °F39.9 °F77 %30.14 in10.0 miNorth (350°)5.8 mphClear
7:52 AM48.9 °F39.9 °F71 %30.17 in10.0 miNorth (360°)8.1 mphClear
8:52 AM51.1 °F41.0 °F68 %30.17 in10.0 miCalmPartly Cloudy
9:52 AM54.0 °F41.0 °F62 %30.17 in10.0 miNNE (30°)8.1 mphMostly Cloudy
10:52 AM57.9 °F42.1 °F56 %30.17 in10.0 miNorth (350°)11.5 mph16.1 mphMostly Cloudy
11:52 AM60.8 °F41.0 °F48 %30.18 in10.0 miNNE (20°)15.0 mph20.7 mphClear
12:52 PM61.0 °F41.0 °F48 %30.16 in10.0 miNorth (360°)11.5 mphMostly Cloudy
1:52 PM62.6 °F42.8 °F48 %30.15 in10.0 miNNE (30°)9.2 mphMostly Cloudy
2:52 PM64.0 °F42.1 °F45 %30.13 in10.0 miNE (50°)8.1 mphMostly Cloudy
3:52 PM64.0 °F41.0 °F43 %30.12 in10.0 miEast (100°)3.5 mphMostly Cloudy
4:52 PM63.0 °F43.0 °F48 %30.12 in10.0 miSSE (150°)5.8 mph0.00 inRainLight Rain
5:52 PM62.6 °F42.8 °F48 %30.12 in10.0 miWSW (250°)4.6 mphOvercast
6:52 PM62.1 °F42.1 °F48 %30.11 in10.0 miNE (50°)6.9 mphScattered Clouds
7:52 PM53.6 °F39.2 °F58 %30.12 in10.0 miENE (70°)6.9 mphClear
8:52 PM50.0 °F37.9 °F63 %30.15 in10.0 miEast (80°)9.2 mphClear
9:52 PM52.0 °F39.9 °F63 %30.16 in10.0 miEast (100°)5.8 mphOvercast
10:52 PM46.4 °F39.2 °F76 %30.16 in10.0 miCalmScattered Clouds
11:52 PM43.0 °F36.0 °F76 %30.17 in10.0 miWNW (300°)4.6 mphClear
Hourly data recorded from KRAP, located miles away from Rapid City, South Dakota







STORIES FROM OUR PARTNERS